Regional Weather Roundup
Issued by NWS Newport/Morehead, NC

Current Version | Previous Version | Text Only | Print | Product List | Glossary On
Versions: 1 2 3 4 5 6 7 8 9 10 11 12 13 14 15 16 17 18 19 20 21 22 23 24 25 26 27 28 29 30 31 32 33 34 35 36 37 38 39 40 41 42 43 44 45 46 47 48 49 50
000
ASUS42 KMHX 261713
RWRMHX
WEATHER ROUNDUP FOR EASTERN NORTH CAROLINA
NATIONAL WEATHER SERVICE NEWPORT/MOREHEAD CITY NC
100 PM EDT MON JUN 26 2017

NOTE: "FAIR" INDICATES FEW OR NO CLOUDS BELOW 12,000 FEET
WITH NO SIGNIFICANT WEATHER AND/OR OBSTRUCTIONS TO VISIBILITY

NCZ015>017-031-032-045>047-102-103-261800-
NORTH COAST

CITY           SKY/WX    TMP DP  RH WIND       PRES   REMARKS
EDENTON        SUNNY     84  52  33 CALM      30.10F
ELIZABETH CITY SUNNY     83  60  45 E7        30.09F
KITTY HAWK     CLOUDY    77  61  56 NE5       30.09S
MANTEO         MOSUNNY   79  59  50 E10       30.11S

$$

NCZ045>047-081-094-103-104-261800-
CENTRAL COAST

CITY           SKY/WX    TMP DP  RH WIND       PRES   REMARKS
FRISCO         NOT AVBL

$$

NCZ095-097-098-100-101-261800-
SOUTHERN COAST

CITY           SKY/WX    TMP DP  RH WIND       PRES   REMARKS
BEAUFORT       CLOUDY    81  68  64 E8        30.09F
CEDAR ISLAND   NOT AVBL
JACKSONVILLE   NOT AVBL
PINEY ISLAND   MOSUNNY  N/A N/A N/A E13       30.10S
WILMINGTON     CLOUDY    83  60  45 N7        30.10F


$$

NCZ011>013-027>030-043-044-078>080-089-090>093-098-261800-
COASTAL PLAIN

CITY           SKY/WX    TMP DP  RH WIND       PRES   REMARKS
AHOSKIE          N/A     80  52  38 N5        30.10F
CLINTON        CLOUDY    83  58  42 N3        30.12S
ELIZABETHTOWN  NOT AVBL
GOLDSBORO      MOSUNNY   83  54  37 E5        30.09F
GREENVILLE     SUNNY     82  50  32 CALM      30.12F
HAVELOCK       CLOUDY    82  63  52 NE7       30.11S
KENANSVILLE    CLOUDY    81  57  44 NE3       30.11F
KINSTON        MOSUNNY   82  50  32 E6        30.11F
NEW BERN       CLOUDY    80  61  52 E8        30.11F
RICHLANDS      CLOUDY    82  57  42 NE9       30.11F
ROCKY MOUNT    SUNNY     82  50  32 NW7       30.11F
WASHINGTON     MOSUNNY  N/A N/A N/A CALM      30.11S
WHITEVILLE     CLOUDY    79  58  47 NE5       30.11F

$$

AMZ130-135-150-152-154-156-158-170-250-252-270-ANZ085-086-088-633-658-670-261800-
MARINE OBSERVATIONS

STATION/POSITION TIME  TEMP    WIND        PRES    WAVE   SWELL
                       AIR SEA DIR/SP/G            HT/PER HT/PER
                 (UTC) (F)     (DEG/KT/KT) (MB)    (FT/S) (FT/S)
CHESAPEAKE LIGHT NOT AVBL
64 E VA BEACH    1650   74 73   20/  6/  8 1019.5    2/ 7   2/ 7
DUCK             1642   73 72   20/  6/  7 1019.0
2 E DUCK         NOT AVBL
OREGON INLET     1642   75 75   30/  8/ 11 1019.1
13E OREGON INLT  1648      74                N/A     2/ 8   2/ 8
HATTERAS CG      1642   79 77   70/ 11/ 13 1018.9
DIAMOND BUOY     1650   78 81   40/  6/  8 1018.8    2/ 8   2/ 8
CAPE LOOKOUT     1700   77      50/ 10/ 11 1018.7
BEAUFORT LAB     1642   79 78   40/  5/  9 1018.5
30 SE NEW RVR IN 1608   78 80  110/  8/ 12 1019.1
30 SE NEW RVR IN 1643      80                N/A     2/ 8
27 SE WRIGHTSVLE 1608   78 80   40/ 10/ 16 1018.4
5 SE WRIGHTSVLE  1608   77 79   50/ 10/ 14 1019.2
225 S CAPE HAT   1650   78 81  210/ 10/ 14 1019.0    3/ 6   2/ 6
41 SE CHARLESTON 1650   77 81   60/  8/  8 1018.0    3/ 4   2/ 7

$$




USA.gov is the U.S. government's official web portal to all federal, state and local government web resources and services.